Time,TemperatureF,DewpointF,PressureIn,WindDirection,WindDirectionDegrees,WindSpeedMPH,WindSpeedGustMPH,Humidity,HourlyPrecipIn,Conditions,Clouds,dailyrainin,SoftwareType,DateUTC
2013-01-30 00:01:00,62.8,57.6,30.00,NW,318,0.0,10.0,83,0.00,,---,0.00,VWS V13.01,2013-01-30 05:01:00,
2013-01-30 00:03:00,62.8,57.6,30.00,West,269,0.0,10.0,83,0.00,,---,0.00,VWS V13.01,2013-01-30 05:03:00,
2013-01-30 00:08:00,62.9,57.7,30.00,West,266,0.0,10.0,83,0.00,,---,0.00,VWS V13.01,2013-01-30 05:08:00,
2013-01-30 00:13:00,63.0,57.8,30.00,North,352,0.0,10.0,83,0.00,,---,0.00,VWS V13.01,2013-01-30 05:13:00,
2013-01-30 00:18:00,63.2,57.6,30.00,South,191,0.0,10.0,82,0.00,,---,0.00,VWS V13.01,2013-01-30 05:18:00,
2013-01-30 00:23:00,63.1,57.5,30.00,NW,322,1.0,10.0,82,0.00,,---,0.00,VWS V13.01,2013-01-30 05:23:00,
2013-01-30 00:28:00,63.1,57.5,29.99,NNW,342,1.0,10.0,82,0.00,,---,0.00,VWS V13.01,2013-01-30 05:28:00,
2013-01-30 00:33:00,63.1,57.5,29.99,NW,324,0.0,10.0,82,0.00,,---,0.00,VWS V13.01,2013-01-30 05:33:00,
2013-01-30 00:38:00,63.0,57.8,29.99,North,352,2.0,10.0,83,0.00,,---,0.00,VWS V13.01,2013-01-30 05:38:00,
2013-01-30 00:43:00,63.1,57.9,29.99,SSW,201,0.0,10.0,83,0.00,,---,0.00,VWS V13.01,2013-01-30 05:43:00,
2013-01-30 00:48:00,63.0,57.8,29.99,SSE,167,0.0,10.0,83,0.00,,---,0.00,VWS V13.01,2013-01-30 05:48:00,
2013-01-30 00:53:00,62.9,57.7,29.99,NNW,335,1.0,10.0,83,0.00,,---,0.00,VWS V13.01,2013-01-30 05:53:00,
2013-01-30 00:58:00,62.8,57.9,29.98,SSE,163,0.0,10.0,84,0.00,,---,0.00,VWS V13.01,2013-01-30 05:58:00,
2013-01-30 01:03:00,62.7,57.8,29.98,North,356,0.0,10.0,84,0.00,,---,0.00,VWS V13.01,2013-01-30 06:03:00,
2013-01-30 01:08:00,62.6,57.7,29.98,WNW,295,1.0,10.0,84,0.00,,---,0.00,VWS V13.01,2013-01-30 06:08:00,
2013-01-30 01:13:00,62.6,58.0,29.98,NW,326,1.0,10.0,85,0.00,,---,0.00,VWS V13.01,2013-01-30 06:13:00,
2013-01-30 01:18:00,62.6,58.0,29.98,South,170,0.0,10.0,85,0.00,,---,0.00,VWS V13.01,2013-01-30 06:18:00,
2013-01-30 01:23:00,62.6,58.4,29.98,SSE,162,0.0,10.0,86,0.00,,---,0.00,VWS V13.01,2013-01-30 06:23:00,
2013-01-30 01:28:00,62.5,58.3,29.98,North,5,3.0,10.0,86,0.00,,---,0.00,VWS V13.01,2013-01-30 06:28:00,
2013-01-30 01:33:00,62.4,58.5,29.98,SW,231,0.0,10.0,87,0.00,,---,0.00,VWS V13.01,2013-01-30 06:33:00,
2013-01-30 01:38:00,62.5,58.6,29.98,SSE,158,1.0,10.0,87,0.00,,---,0.00,VWS V13.01,2013-01-30 06:38:00,
2013-01-30 01:43:00,62.5,58.6,29.97,North,358,0.0,10.0,87,0.00,,---,0.00,VWS V13.01,2013-01-30 06:43:00,
2013-01-30 01:48:00,62.5,58.9,29.97,WSW,240,2.0,10.0,88,0.00,,---,0.00,VWS V13.01,2013-01-30 06:48:00,
2013-01-30 01:53:00,62.5,58.9,29.97,SW,231,2.0,10.0,88,0.00,,---,0.00,VWS V13.01,2013-01-30 06:53:00,
2013-01-30 01:58:00,62.4,58.8,29.97,SSE,160,0.0,10.0,88,0.00,,---,0.00,VWS V13.01,2013-01-30 06:58:00,
2013-01-30 02:03:00,62.4,58.8,29.97,North,352,0.0,10.0,88,0.00,,---,0.00,VWS V13.01,2013-01-30 07:03:00,
2013-01-30 02:08:00,62.3,58.7,29.97,SW,236,0.0,10.0,88,0.00,,---,0.00,VWS V13.01,2013-01-30 07:08:00,
2013-01-30 02:13:00,62.3,59.0,29.96,West,274,1.0,10.0,89,0.00,,---,0.00,VWS V13.01,2013-01-30 07:13:00,
2013-01-30 02:18:00,62.4,59.1,29.96,SW,214,1.0,10.0,89,0.00,,---,0.00,VWS V13.01,2013-01-30 07:18:00,
2013-01-30 02:23:00,62.4,59.1,29.96,North,352,2.0,10.0,89,0.00,,---,0.00,VWS V13.01,2013-01-30 07:23:00,
2013-01-30 02:28:00,62.6,59.3,29.95,South,174,4.0,10.0,89,0.00,,---,0.00,VWS V13.01,2013-01-30 07:28:00,
2013-01-30 02:33:00,62.7,59.4,29.95,NNW,331,1.0,10.0,89,0.00,,---,0.00,VWS V13.01,2013-01-30 07:33:00,
2013-01-30 02:38:00,62.8,59.5,29.95,North,354,2.0,10.0,89,0.00,,---,0.00,VWS V13.01,2013-01-30 07:38:00,
2013-01-30 02:43:00,62.9,59.6,29.95,SSE,158,0.0,10.0,89,0.00,,---,0.00,VWS V13.01,2013-01-30 07:43:00,
2013-01-30 02:48:00,63.0,59.7,29.95,WNW,283,1.0,10.0,89,0.00,,---,0.00,VWS V13.01,2013-01-30 07:48:00,
2013-01-30 02:53:00,63.1,59.8,29.95,West,259,0.0,10.0,89,0.00,,---,0.00,VWS V13.01,2013-01-30 07:53:00,
2013-01-30 02:58:00,63.2,59.9,29.94,NW,306,2.0,10.0,89,0.00,,---,0.00,VWS V13.01,2013-01-30 07:58:00,
2013-01-30 03:03:00,63.2,59.9,29.94,WSW,245,1.0,10.0,89,0.00,,---,0.00,VWS V13.01,2013-01-30 08:03:00,
2013-01-30 03:08:00,63.2,59.9,29.94,SSE,163,0.0,10.0,89,0.00,,---,0.00,VWS V13.01,2013-01-30 08:08:00,
2013-01-30 03:13:00,63.2,59.9,29.94,SW,219,1.0,10.0,89,0.00,,---,0.00,VWS V13.01,2013-01-30 08:13:00,
2013-01-30 03:18:00,63.2,59.9,29.94,South,183,0.0,10.0,89,0.00,,---,0.00,VWS V13.01,2013-01-30 08:18:00,
2013-01-30 03:23:00,63.1,59.8,29.94,SSE,160,0.0,10.0,89,0.00,,---,0.00,VWS V13.01,2013-01-30 08:23:00,
2013-01-30 03:28:00,63.2,60.2,29.93,NNW,335,2.0,10.0,90,0.00,,---,0.00,VWS V13.01,2013-01-30 08:28:00,
2013-01-30 03:33:00,63.2,60.2,29.93,WSW,249,1.0,11.0,90,0.00,,---,0.00,VWS V13.01,2013-01-30 08:33:00,
2013-01-30 03:38:00,63.3,60.3,29.93,NNW,346,0.0,11.0,90,0.00,,---,0.00,VWS V13.01,2013-01-30 08:38:00,
2013-01-30 03:43:00,63.3,60.3,29.93,North,359,2.0,11.0,90,0.00,,---,0.00,VWS V13.01,2013-01-30 08:43:00,
2013-01-30 03:48:00,63.5,60.5,29.93,SE,137,0.0,11.0,90,0.00,,---,0.00,VWS V13.01,2013-01-30 08:48:00,
2013-01-30 03:53:00,63.5,60.2,29.93,WNW,297,3.0,11.0,89,0.00,,---,0.00,VWS V13.01,2013-01-30 08:53:00,
2013-01-30 03:58:00,63.5,60.2,29.92,North,358,0.0,11.0,89,0.00,,---,0.00,VWS V13.01,2013-01-30 08:58:00,
2013-01-30 04:03:00,63.6,60.3,29.92,NNW,336,0.0,11.0,89,0.00,,---,0.00,VWS V13.01,2013-01-30 09:03:00,
2013-01-30 04:08:00,63.7,60.4,29.92,NNW,338,3.0,11.0,89,0.00,,---,0.00,VWS V13.01,2013-01-30 09:08:00,
2013-01-30 04:13:00,63.7,60.4,29.92,SW,224,1.0,11.0,89,0.00,,---,0.00,VWS V13.01,2013-01-30 09:13:00,
2013-01-30 04:18:00,63.9,60.6,29.92,West,281,0.0,11.0,89,0.00,,---,0.00,VWS V13.01,2013-01-30 09:18:00,
2013-01-30 04:23:00,63.9,60.6,29.92,North,1,1.0,11.0,89,0.00,,---,0.00,VWS V13.01,2013-01-30 09:23:00,
2013-01-30 04:28:00,64.0,60.7,29.92,NNW,333,1.0,11.0,89,0.00,,---,0.00,VWS V13.01,2013-01-30 09:28:00,
2013-01-30 04:33:00,64.1,60.8,29.92,SW,236,0.0,11.0,89,0.00,,---,0.00,VWS V13.01,2013-01-30 09:33:00,
2013-01-30 04:38:00,64.2,60.9,29.92,NW,323,2.0,11.0,89,0.00,,---,0.00,VWS V13.01,2013-01-30 09:38:00,
2013-01-30 04:43:00,64.4,60.8,29.92,NNW,333,0.0,11.0,88,0.00,,---,0.00,VWS V13.01,2013-01-30 09:43:00,
2013-01-30 04:48:00,64.4,60.8,29.92,West,269,0.0,11.0,88,0.00,,---,0.00,VWS V13.01,2013-01-30 09:48:00,
2013-01-30 04:53:00,64.6,61.0,29.92,WSW,239,0.0,11.0,88,0.00,,---,0.00,VWS V13.01,2013-01-30 09:53:00,
2013-01-30 04:58:00,64.7,61.1,29.91,SSW,211,0.0,11.0,88,0.00,,---,0.00,VWS V13.01,2013-01-30 09:58:00,
2013-01-30 05:03:00,65.0,61.0,29.91,North,8,1.0,11.0,87,0.00,,---,0.00,VWS V13.01,2013-01-30 10:03:00,
2013-01-30 05:08:00,65.1,61.1,29.91,NW,323,1.0,11.0,87,0.00,,---,0.00,VWS V13.01,2013-01-30 10:08:00,
2013-01-30 05:13:00,65.2,61.2,29.91,NW,316,1.0,11.0,87,0.00,,---,0.00,VWS V13.01,2013-01-30 10:13:00,
2013-01-30 05:18:00,65.2,60.9,29.91,SSE,153,0.0,11.0,86,0.00,,---,0.00,VWS V13.01,2013-01-30 10:18:00,
2013-01-30 05:23:00,65.2,60.9,29.91,South,191,0.0,11.0,86,0.00,,---,0.00,VWS V13.01,2013-01-30 10:23:00,
2013-01-30 05:28:00,65.1,61.1,29.91,NNW,348,2.0,11.0,87,0.00,,---,0.00,VWS V13.01,2013-01-30 10:28:00,
2013-01-30 05:33:00,65.2,61.2,29.91,SW,218,0.0,11.0,87,0.00,,---,0.00,VWS V13.01,2013-01-30 10:33:00,
2013-01-30 05:38:00,65.2,61.2,29.91,North,352,3.0,11.0,87,0.00,,---,0.00,VWS V13.01,2013-01-30 10:38:00,
2013-01-30 05:43:00,65.1,61.1,29.90,NNW,344,2.0,11.0,87,0.00,,---,0.00,VWS V13.01,2013-01-30 10:43:00,
2013-01-30 05:48:00,65.1,61.1,29.90,NW,311,0.0,11.0,87,0.00,,---,0.00,VWS V13.01,2013-01-30 10:48:00,
2013-01-30 05:53:00,65.1,61.1,29.90,SSE,163,1.0,11.0,87,0.00,,---,0.00,VWS V13.01,2013-01-30 10:53:00,
2013-01-30 05:58:00,65.2,61.2,29.89,SSW,195,0.0,11.0,87,0.00,,---,0.00,VWS V13.01,2013-01-30 10:58:00,
2013-01-30 06:03:00,65.1,61.1,29.89,WNW,301,0.0,11.0,87,0.00,,---,0.00,VWS V13.01,2013-01-30 11:03:00,
2013-01-30 06:08:00,65.1,61.1,29.89,NNE,23,0.0,11.0,87,0.00,,---,0.00,VWS V13.01,2013-01-30 11:08:00,
2013-01-30 06:13:00,65.2,61.2,29.89,NNW,347,0.0,11.0,87,0.00,,---,0.00,VWS V13.01,2013-01-30 11:13:00,
2013-01-30 06:18:00,65.1,61.1,29.89,NW,316,0.0,11.0,87,0.00,,---,0.00,VWS V13.01,2013-01-30 11:18:00,
2013-01-30 06:23:00,65.1,61.1,29.89,North,6,1.0,11.0,87,0.00,,---,0.00,VWS V13.01,2013-01-30 11:23:00,
2013-01-30 06:28:00,65.1,61.1,29.89,SW,229,0.0,11.0,87,0.00,,---,0.00,VWS V13.01,2013-01-30 11:28:00,
2013-01-30 06:33:00,65.1,61.1,29.89,West,269,0.0,11.0,87,0.00,,---,0.00,VWS V13.01,2013-01-30 11:33:00,
2013-01-30 06:38:00,65.1,61.1,29.89,NW,326,2.0,11.0,87,0.00,,---,0.00,VWS V13.01,2013-01-30 11:38:00,
2013-01-30 06:43:00,65.2,61.2,29.89,NW,316,0.0,11.0,87,0.00,,---,0.00,VWS V13.01,2013-01-30 11:43:00,
2013-01-30 06:48:00,65.1,61.1,29.89,NNW,329,0.0,11.0,87,0.00,,---,0.00,VWS V13.01,2013-01-30 11:48:00,
2013-01-30 06:53:00,65.1,61.5,29.89,WSW,257,1.0,11.0,88,0.00,,---,0.00,VWS V13.01,2013-01-30 11:53:00,
2013-01-30 06:58:00,65.2,61.6,29.89,NNW,338,0.0,11.0,88,0.00,,---,0.00,VWS V13.01,2013-01-30 11:58:00,
2013-01-30 07:03:00,65.2,61.2,29.89,NNW,342,2.0,11.0,87,0.00,,---,0.00,VWS V13.01,2013-01-30 12:03:00,
2013-01-30 07:08:00,65.3,61.3,29.89,SSE,157,4.0,11.0,87,0.00,,---,0.00,VWS V13.01,2013-01-30 12:08:00,
2013-01-30 07:13:00,65.3,61.3,29.88,SW,232,0.0,11.0,87,0.00,,---,0.00,VWS V13.01,2013-01-30 12:13:00,
2013-01-30 07:18:00,65.3,61.3,29.88,SW,233,1.0,11.0,87,0.00,,---,0.00,VWS V13.01,2013-01-30 12:18:00,
2013-01-30 07:23:00,65.3,61.3,29.88,SSE,155,0.0,11.0,87,0.00,,---,0.00,VWS V13.01,2013-01-30 12:23:00,
2013-01-30 07:28:00,65.3,61.7,29.88,West,259,2.0,11.0,88,0.00,,---,0.00,VWS V13.01,2013-01-30 12:28:00,
2013-01-30 07:33:00,65.3,61.7,29.88,NNW,347,2.0,11.0,88,0.00,,---,0.00,VWS V13.01,2013-01-30 12:33:00,
2013-01-30 07:38:00,65.4,61.8,29.88,South,172,0.0,11.0,88,0.00,,---,0.00,VWS V13.01,2013-01-30 12:38:00,
2013-01-30 07:43:00,65.4,61.4,29.88,NNW,333,0.0,11.0,87,0.00,,---,0.00,VWS V13.01,2013-01-30 12:43:00,
2013-01-30 07:48:00,65.4,61.4,29.88,WNW,285,0.0,11.0,87,0.00,,---,0.00,VWS V13.01,2013-01-30 12:48:00,
2013-01-30 07:53:00,65.5,61.5,29.88,NW,322,2.0,11.0,87,0.00,,---,0.00,VWS V13.01,2013-01-30 12:53:00,
2013-01-30 07:58:00,65.6,61.6,29.86,NNW,342,0.0,11.0,87,0.00,,---,0.00,VWS V13.01,2013-01-30 12:58:00,
2013-01-30 08:03:00,65.7,61.7,29.86,South,170,1.0,11.0,87,0.00,,---,0.00,VWS V13.01,2013-01-30 13:03:00,
2013-01-30 08:08:00,65.7,61.7,29.86,SSE,166,2.0,11.0,87,0.00,,---,0.00,VWS V13.01,2013-01-30 13:08:00,
2013-01-30 08:13:00,65.8,61.8,29.86,West,279,0.0,11.0,87,0.00,,---,0.00,VWS V13.01,2013-01-30 13:13:00,
2013-01-30 08:18:00,65.8,61.8,29.86,NNW,333,3.0,11.0,87,0.00,,---,0.00,VWS V13.01,2013-01-30 13:18:00,
2013-01-30 08:23:00,65.9,61.6,29.86,SSE,156,0.0,11.0,86,0.00,,---,0.00,VWS V13.01,2013-01-30 13:23:00,
2013-01-30 08:28:00,66.0,61.7,29.86,SW,225,2.0,11.0,86,0.00,,---,0.00,VWS V13.01,2013-01-30 13:28:00,
2013-01-30 08:33:00,66.1,61.8,29.86,SSW,193,0.0,11.0,86,0.00,,---,0.00,VWS V13.01,2013-01-30 13:33:00,
2013-01-30 08:38:00,66.1,61.8,29.86,SSE,160,5.0,11.0,86,0.00,,---,0.00,VWS V13.01,2013-01-30 13:38:00,
2013-01-30 08:43:00,66.2,61.6,29.85,WNW,295,2.0,11.0,85,0.00,,---,0.00,VWS V13.01,2013-01-30 13:43:00,
2013-01-30 08:48:00,66.4,61.8,29.85,South,174,1.0,11.0,85,0.00,,---,0.00,VWS V13.01,2013-01-30 13:48:00,
2013-01-30 08:53:00,66.4,61.8,29.85,NNW,345,2.0,11.0,85,0.00,,---,0.00,VWS V13.01,2013-01-30 13:53:00,
2013-01-30 08:58:00,66.6,62.0,29.84,SSE,150,2.0,11.0,85,0.00,,---,0.00,VWS V13.01,2013-01-30 13:58:00,
2013-01-30 09:03:00,66.7,61.7,29.84,West,279,0.0,11.0,84,0.00,,---,0.00,VWS V13.01,2013-01-30 14:03:00,
2013-01-30 09:08:00,66.9,61.9,29.84,NNW,343,2.0,11.0,84,0.00,,---,0.00,VWS V13.01,2013-01-30 14:08:00,
2013-01-30 09:13:00,66.9,61.9,29.85,WSW,252,2.0,11.0,84,0.00,,---,0.00,VWS V13.01,2013-01-30 14:13:00,
2013-01-30 09:18:00,67.0,62.0,29.85,South,186,0.0,13.0,84,0.00,,---,0.00,VWS V13.01,2013-01-30 14:18:00,
2013-01-30 09:23:00,67.1,62.1,29.85,SSW,202,0.0,13.0,84,0.00,,---,0.00,VWS V13.01,2013-01-30 14:23:00,
2013-01-30 09:28:00,67.2,61.9,29.84,NNW,340,1.0,13.0,83,0.00,,---,0.00,VWS V13.01,2013-01-30 14:28:00,
2013-01-30 09:33:00,67.2,61.9,29.84,NW,309,0.0,13.0,83,0.00,,---,0.00,VWS V13.01,2013-01-30 14:33:00,
2013-01-30 09:38:00,67.2,61.9,29.84,NW,320,1.0,13.0,83,0.00,,---,0.00,VWS V13.01,2013-01-30 14:38:00,
2013-01-30 09:43:00,67.3,62.3,29.83,SW,231,0.0,13.0,84,0.00,,---,0.00,VWS V13.01,2013-01-30 14:43:00,
2013-01-30 09:48:00,67.3,62.0,29.83,NNE,23,0.0,13.0,83,0.00,,---,0.00,VWS V13.01,2013-01-30 14:48:00,
2013-01-30 09:53:00,67.3,62.0,29.83,WSW,248,0.0,13.0,83,0.00,,---,0.00,VWS V13.01,2013-01-30 14:53:00,
2013-01-30 09:58:00,67.3,62.3,29.84,NNE,12,2.0,13.0,84,0.00,,---,0.00,VWS V13.01,2013-01-30 14:58:00,
2013-01-30 10:03:00,67.3,62.3,29.84,NNE,15,0.0,13.0,84,0.00,,---,0.00,VWS V13.01,2013-01-30 15:03:00,
2013-01-30 10:08:00,67.4,62.4,29.84,NW,305,1.0,13.0,84,0.00,,---,0.00,VWS V13.01,2013-01-30 15:08:00,
2013-01-30 10:13:00,67.4,62.4,29.83,South,172,2.0,13.0,84,0.00,,---,0.00,VWS V13.01,2013-01-30 15:13:00,
2013-01-30 10:18:00,67.5,62.5,29.83,South,191,0.0,13.0,84,0.00,,---,0.00,VWS V13.01,2013-01-30 15:18:00,
2013-01-30 10:23:00,67.4,62.4,29.83,NNW,339,2.0,13.0,84,0.00,,---,0.00,VWS V13.01,2013-01-30 15:23:00,
2013-01-30 10:28:00,67.5,62.5,29.83,SSE,166,1.0,13.0,84,0.00,,---,0.00,VWS V13.01,2013-01-30 15:28:00,
2013-01-30 10:33:00,67.6,62.6,29.83,SSE,158,1.0,13.0,84,0.00,,---,0.00,VWS V13.01,2013-01-30 15:33:00,
2013-01-30 10:38:00,67.6,62.6,29.83,SSW,193,0.0,13.0,84,0.00,,---,0.00,VWS V13.01,2013-01-30 15:38:00,
2013-01-30 10:43:00,67.7,62.7,29.82,WNW,291,1.0,13.0,84,0.00,,---,0.00,VWS V13.01,2013-01-30 15:43:00,
2013-01-30 10:48:00,67.8,62.8,29.82,North,352,6.0,13.0,84,0.00,,---,0.00,VWS V13.01,2013-01-30 15:48:00,
2013-01-30 10:53:00,67.8,62.8,29.82,South,177,0.0,13.0,84,0.00,,---,0.00,VWS V13.01,2013-01-30 15:53:00,
2013-01-30 10:58:00,67.9,62.9,29.82,ESE,121,4.0,13.0,84,0.00,,---,0.00,VWS V13.01,2013-01-30 15:58:00,
2013-01-30 11:03:00,67.8,62.8,29.82,North,356,2.0,15.0,84,0.00,,---,0.00,VWS V13.01,2013-01-30 16:03:00,
2013-01-30 11:08:00,67.8,62.8,29.82,West,263,1.0,15.0,84,0.00,,---,0.00,VWS V13.01,2013-01-30 16:08:00,
2013-01-30 11:13:00,67.8,62.8,29.81,SW,232,1.0,15.0,84,0.00,,---,0.00,VWS V13.01,2013-01-30 16:13:00,
2013-01-30 11:18:00,67.7,63.0,29.81,ESE,118,2.0,15.0,85,0.00,,---,0.00,VWS V13.01,2013-01-30 16:18:00,
2013-01-30 11:23:00,67.7,63.0,29.81,NW,326,2.0,15.0,85,0.00,,---,0.00,VWS V13.01,2013-01-30 16:23:00,
2013-01-30 11:28:00,67.7,63.0,29.81,NW,321,1.0,15.0,85,0.00,,---,0.00,VWS V13.01,2013-01-30 16:28:00,
2013-01-30 11:33:00,67.7,63.0,29.81,SSE,160,1.0,15.0,85,0.00,,---,0.00,VWS V13.01,2013-01-30 16:33:00,
2013-01-30 11:38:00,67.6,62.9,29.81,SSE,167,0.0,15.0,85,0.00,,---,0.00,VWS V13.01,2013-01-30 16:38:00,
2013-01-30 11:43:00,67.6,62.9,29.79,NNW,333,0.0,15.0,85,0.00,,---,0.00,VWS V13.01,2013-01-30 16:43:00,
2013-01-30 11:48:00,67.5,62.8,29.79,North,9,3.0,15.0,85,0.00,,---,0.00,VWS V13.01,2013-01-30 16:48:00,
2013-01-30 11:53:00,67.5,62.8,29.79,WNW,295,1.0,15.0,85,0.00,,---,0.00,VWS V13.01,2013-01-30 16:53:00,
2013-01-30 11:58:00,67.5,63.2,29.77,SSE,160,1.0,15.0,86,0.00,,---,0.00,VWS V13.01,2013-01-30 16:58:00,
2013-01-30 12:03:00,67.5,63.2,29.77,NNW,343,2.0,15.0,86,0.00,,---,0.00,VWS V13.01,2013-01-30 17:03:00,
2013-01-30 12:08:00,67.5,63.2,29.77,WNW,294,1.0,15.0,86,0.00,,---,0.00,VWS V13.01,2013-01-30 17:08:00,
2013-01-30 12:13:00,67.5,63.2,29.76,East,94,0.0,15.0,86,0.00,,---,0.00,VWS V13.01,2013-01-30 17:13:00,
2013-01-30 12:18:00,67.6,63.3,29.76,NNW,336,2.0,15.0,86,0.00,,---,0.00,VWS V13.01,2013-01-30 17:18:00,
2013-01-30 12:23:00,67.6,63.3,29.76,NNW,346,2.0,15.0,86,0.00,,---,0.00,VWS V13.01,2013-01-30 17:23:00,
2013-01-30 12:28:00,67.5,63.2,29.75,South,189,1.0,15.0,86,0.00,,---,0.00,VWS V13.01,2013-01-30 17:28:00,
2013-01-30 12:33:00,67.4,63.1,29.75,North,356,2.0,15.0,86,0.00,,---,0.00,VWS V13.01,2013-01-30 17:33:00,
2013-01-30 12:38:00,67.3,63.3,29.75,West,260,1.0,15.0,87,0.00,,---,0.00,VWS V13.01,2013-01-30 17:38:00,
2013-01-30 12:43:00,67.2,63.2,29.74,NNW,335,2.0,15.0,87,0.00,,---,0.00,VWS V13.01,2013-01-30 17:43:00,
2013-01-30 12:48:00,67.0,63.3,29.74,SSE,166,0.0,15.0,88,0.00,,---,0.00,VWS V13.01,2013-01-30 17:48:00,
2013-01-30 12:53:00,66.8,63.5,29.74,WSW,252,0.0,15.0,89,0.00,,---,0.00,VWS V13.01,2013-01-30 17:53:00,
2013-01-30 12:58:00,66.7,63.4,29.74,North,354,1.0,15.0,89,0.00,,---,0.00,VWS V13.01,2013-01-30 17:58:00,
2013-01-30 13:03:00,66.6,62.9,29.74,South,172,5.0,15.0,88,0.00,,---,0.00,VWS V13.01,2013-01-30 18:03:00,
2013-01-30 13:08:00,66.8,63.1,29.74,WNW,290,2.0,15.0,88,0.00,,---,0.00,VWS V13.01,2013-01-30 18:08:00,
2013-01-30 13:13:00,67.1,63.1,29.72,SE,139,0.0,15.0,87,0.00,,---,0.00,VWS V13.01,2013-01-30 18:13:00,
2013-01-30 13:18:00,67.2,63.2,29.72,SSE,159,1.0,15.0,87,0.00,,---,0.00,VWS V13.01,2013-01-30 18:18:00,
2013-01-30 13:23:00,67.3,63.0,29.72,WNW,293,6.0,15.0,86,0.00,,---,0.00,VWS V13.01,2013-01-30 18:23:00,
2013-01-30 13:28:00,67.5,63.2,29.71,WNW,301,2.0,15.0,86,0.00,,---,0.00,VWS V13.01,2013-01-30 18:28:00,
2013-01-30 13:33:00,67.7,63.0,29.71,NNW,336,1.0,15.0,85,0.00,,---,0.00,VWS V13.01,2013-01-30 18:33:00,
2013-01-30 13:38:00,67.8,63.1,29.71,North,349,3.0,15.0,85,0.00,,---,0.00,VWS V13.01,2013-01-30 18:38:00,
2013-01-30 13:43:00,68.2,63.2,29.70,South,173,1.0,15.0,84,0.00,,---,0.00,VWS V13.01,2013-01-30 18:43:00,
2013-01-30 13:48:00,68.6,63.2,29.70,SSW,195,1.0,15.0,83,0.00,,---,0.00,VWS V13.01,2013-01-30 18:48:00,
2013-01-30 13:53:00,69.3,63.6,29.70,West,281,2.0,15.0,82,0.00,,---,0.00,VWS V13.01,2013-01-30 18:53:00,
2013-01-30 13:58:00,70.3,63.8,29.67,WNW,285,6.0,15.0,80,0.00,,---,0.00,VWS V13.01,2013-01-30 18:58:00,
2013-01-30 14:03:00,70.9,64.1,29.67,NW,326,0.0,15.0,79,0.00,,---,0.00,VWS V13.01,2013-01-30 19:03:00,
2013-01-30 14:08:00,70.8,63.6,29.67,SSE,148,4.0,15.0,78,0.00,,---,0.00,VWS V13.01,2013-01-30 19:08:00,
2013-01-30 14:13:00,70.6,63.4,29.67,South,172,5.0,15.0,78,0.00,,---,0.00,VWS V13.01,2013-01-30 19:13:00,
2013-01-30 14:18:00,70.4,63.6,29.67,NNW,329,0.0,15.0,79,0.00,,---,0.00,VWS V13.01,2013-01-30 19:18:00,
2013-01-30 14:23:00,70.5,63.7,29.67,South,170,2.0,15.0,79,0.00,,---,0.00,VWS V13.01,2013-01-30 19:23:00,
2013-01-30 14:28:00,71.4,63.8,29.65,NW,315,1.0,15.0,77,0.00,,---,0.00,VWS V13.01,2013-01-30 19:28:00,
2013-01-30 14:33:00,72.2,63.8,29.65,NNW,343,1.0,15.0,75,0.00,,---,0.00,VWS V13.01,2013-01-30 19:33:00,
2013-01-30 14:38:00,72.7,63.9,29.65,NNW,347,1.0,15.0,74,0.00,,---,0.00,VWS V13.01,2013-01-30 19:38:00,
2013-01-30 14:43:00,72.9,64.1,29.64,North,350,2.0,15.0,74,0.00,,---,0.00,VWS V13.01,2013-01-30 19:43:00,
2013-01-30 14:48:00,72.8,64.0,29.64,NE,41,1.0,15.0,74,0.00,,---,0.00,VWS V13.01,2013-01-30 19:48:00,
2013-01-30 14:53:00,73.1,63.9,29.64,WNW,297,2.0,15.0,73,0.00,,---,0.00,VWS V13.01,2013-01-30 19:53:00,
2013-01-30 14:58:00,73.1,63.9,29.63,South,181,0.0,15.0,73,0.00,,---,0.00,VWS V13.01,2013-01-30 19:58:00,
2013-01-30 15:03:00,73.7,64.5,29.63,WSW,250,1.0,15.0,73,0.00,,---,0.00,VWS V13.01,2013-01-30 20:03:00,
2013-01-30 15:08:00,74.2,64.6,29.63,South,172,0.0,15.0,72,0.00,,---,0.00,VWS V13.01,2013-01-30 20:08:00,
2013-01-30 15:13:00,74.1,64.1,29.62,SSE,163,1.0,15.0,71,0.00,,---,0.00,VWS V13.01,2013-01-30 20:13:00,
2013-01-30 15:18:00,73.5,63.9,29.62,SE,129,4.0,15.0,72,0.00,,---,0.00,VWS V13.01,2013-01-30 20:18:00,
2013-01-30 15:23:00,72.9,63.3,29.62,South,174,8.0,15.0,72,0.00,,---,0.00,VWS V13.01,2013-01-30 20:23:00,
2013-01-30 15:28:00,72.7,63.5,29.62,North,10,1.0,15.0,73,0.00,,---,0.00,VWS V13.01,2013-01-30 20:28:00,
2013-01-30 15:33:00,72.8,63.7,29.62,WNW,294,3.0,15.0,73,0.00,,---,0.00,VWS V13.01,2013-01-30 20:33:00,
2013-01-30 15:38:00,72.7,63.5,29.62,SSE,160,7.0,15.0,73,0.00,,---,0.00,VWS V13.01,2013-01-30 20:38:00,
2013-01-30 15:43:00,72.4,63.7,29.61,NW,311,0.0,15.0,74,0.00,,---,0.00,VWS V13.01,2013-01-30 20:43:00,
2013-01-30 15:48:00,72.4,63.3,29.61,SSE,160,0.0,15.0,73,0.00,,---,0.00,VWS V13.01,2013-01-30 20:48:00,
2013-01-30 15:53:00,72.3,63.2,29.61,West,278,1.0,15.0,73,0.00,,---,0.00,VWS V13.01,2013-01-30 20:53:00,
2013-01-30 15:58:00,72.4,63.7,29.60,WSW,248,3.0,15.0,74,0.00,,---,0.00,VWS V13.01,2013-01-30 20:58:00,
2013-01-30 16:03:00,72.4,63.3,29.60,WNW,285,3.0,15.0,73,0.00,,---,0.00,VWS V13.01,2013-01-30 21:03:00,
2013-01-30 16:08:00,72.6,63.8,29.60,NW,309,0.0,15.0,74,0.00,,---,0.00,VWS V13.01,2013-01-30 21:08:00,
2013-01-30 16:13:00,72.6,63.5,29.59,SSE,158,2.0,15.0,73,0.00,,---,0.00,VWS V13.01,2013-01-30 21:13:00,
2013-01-30 16:18:00,72.4,63.3,29.59,SSE,165,0.0,15.0,73,0.00,,---,0.00,VWS V13.01,2013-01-30 21:18:00,
2013-01-30 16:23:00,72.2,63.5,29.59,SSE,162,0.0,15.0,74,0.00,,---,0.00,VWS V13.01,2013-01-30 21:23:00,
2013-01-30 16:28:00,72.0,63.3,29.59,NNW,331,4.0,15.0,74,0.00,,---,0.00,VWS V13.01,2013-01-30 21:28:00,
2013-01-30 16:33:00,71.9,63.2,29.59,NW,322,2.0,15.0,74,0.00,,---,0.00,VWS V13.01,2013-01-30 21:33:00,
2013-01-30 16:38:00,71.9,63.2,29.59,NNW,329,4.0,15.0,74,0.00,,---,0.00,VWS V13.01,2013-01-30 21:38:00,
2013-01-30 16:43:00,71.8,63.1,29.58,WSW,257,2.0,15.0,74,0.00,,---,0.00,VWS V13.01,2013-01-30 21:43:00,
2013-01-30 16:48:00,71.7,63.0,29.58,West,280,1.0,15.0,74,0.00,,---,0.00,VWS V13.01,2013-01-30 21:48:00,
2013-01-30 16:53:00,71.6,62.9,29.58,SSE,159,0.0,15.0,74,0.00,,---,0.00,VWS V13.01,2013-01-30 21:53:00,
2013-01-30 16:58:00,71.5,62.8,29.57,NNW,345,3.0,15.0,74,0.00,,---,0.00,VWS V13.01,2013-01-30 21:58:00,
2013-01-30 17:03:00,71.4,62.7,29.57,North,354,1.0,15.0,74,0.00,,---,0.00,VWS V13.01,2013-01-30 22:03:00,
2013-01-30 17:08:00,71.4,62.7,29.57,South,170,1.0,15.0,74,0.00,,---,0.00,VWS V13.01,2013-01-30 22:08:00,
2013-01-30 17:13:00,71.4,62.7,29.57,NNW,339,0.0,15.0,74,0.00,,---,0.00,VWS V13.01,2013-01-30 22:13:00,
2013-01-30 17:18:00,71.3,62.6,29.57,NE,34,2.0,15.0,74,0.00,,---,0.00,VWS V13.01,2013-01-30 22:18:00,
2013-01-30 17:23:00,71.2,62.5,29.57,SW,214,2.0,15.0,74,0.00,,---,0.00,VWS V13.01,2013-01-30 22:23:00,
2013-01-30 17:28:00,71.2,62.5,29.57,WNW,291,1.0,15.0,74,0.00,,---,0.00,VWS V13.01,2013-01-30 22:28:00,
2013-01-30 17:33:00,71.2,62.5,29.57,NNW,328,1.0,15.0,74,0.00,,---,0.00,VWS V13.01,2013-01-30 22:33:00,
2013-01-30 17:38:00,71.2,62.5,29.57,WNW,301,2.0,15.0,74,0.00,,---,0.00,VWS V13.01,2013-01-30 22:38:00,
2013-01-30 17:43:00,71.2,62.5,29.56,WSW,250,0.0,15.0,74,0.00,,---,0.00,VWS V13.01,2013-01-30 22:43:00,
2013-01-30 17:48:00,71.1,62.4,29.56,SSE,159,1.0,15.0,74,0.00,,---,0.00,VWS V13.01,2013-01-30 22:48:00,
2013-01-30 17:53:00,71.0,62.3,29.56,NNW,342,7.0,15.0,74,0.00,,---,0.00,VWS V13.01,2013-01-30 22:53:00,
2013-01-30 17:58:00,70.9,62.2,29.55,South,179,2.0,15.0,74,0.00,,---,0.00,VWS V13.01,2013-01-30 22:58:00,
2013-01-30 18:03:00,70.7,62.0,29.55,ESE,117,1.0,15.0,74,0.00,,---,0.00,VWS V13.01,2013-01-30 23:03:00,
2013-01-30 18:08:00,70.6,62.3,29.55,SSE,160,2.0,15.0,75,0.00,,---,0.00,VWS V13.01,2013-01-30 23:08:00,
2013-01-30 18:13:00,70.5,62.2,29.54,North,11,6.0,15.0,75,0.00,,---,0.00,VWS V13.01,2013-01-30 23:13:00,
2013-01-30 18:18:00,70.3,62.0,29.54,SSE,154,2.0,15.0,75,0.00,,---,0.00,VWS V13.01,2013-01-30 23:18:00,
2013-01-30 18:23:00,70.2,61.9,29.54,South,177,1.0,15.0,75,0.00,,---,0.00,VWS V13.01,2013-01-30 23:23:00,
2013-01-30 18:28:00,70.0,61.7,29.53,SSE,163,0.0,15.0,75,0.00,,---,0.00,VWS V13.01,2013-01-30 23:28:00,
2013-01-30 18:33:00,69.9,62.0,29.53,SSE,167,4.0,15.0,76,0.00,,---,0.00,VWS V13.01,2013-01-30 23:33:00,
2013-01-30 18:38:00,69.8,61.9,29.53,SSE,167,1.0,15.0,76,0.00,,---,0.00,VWS V13.01,2013-01-30 23:38:00,
2013-01-30 18:43:00,69.7,61.8,29.53,SSE,163,1.0,15.0,76,0.00,,---,0.00,VWS V13.01,2013-01-30 23:43:00,
2013-01-30 18:48:00,69.6,61.7,29.51,North,5,5.0,15.0,76,0.00,,---,0.00,VWS V13.01,2013-01-30 23:48:00,
2013-01-30 18:53:00,69.5,61.6,29.51,NNW,335,3.0,15.0,76,0.00,,---,0.00,VWS V13.01,2013-01-30 23:53:00,
2013-01-30 18:58:00,69.4,61.5,29.51,NNW,332,2.0,15.0,76,0.00,,---,0.00,VWS V13.01,2013-01-30 23:58:00,
2013-01-30 19:03:00,69.4,61.5,29.51,NW,320,1.0,15.0,76,0.00,,---,0.00,VWS V13.01,2013-01-31 00:03:00,
2013-01-30 19:08:00,69.2,61.3,29.51,South,187,6.0,15.0,76,0.00,,---,0.00,VWS V13.01,2013-01-31 00:08:00,
2013-01-30 19:13:00,69.3,61.0,29.49,NNW,330,2.0,16.0,75,0.00,,---,0.00,VWS V13.01,2013-01-31 00:13:00,
2013-01-30 19:18:00,69.4,61.1,29.49,NW,307,2.0,16.0,75,0.00,,---,0.00,VWS V13.01,2013-01-31 00:18:00,
2013-01-30 19:23:00,69.4,61.1,29.49,SW,219,1.0,16.0,75,0.00,,---,0.00,VWS V13.01,2013-01-31 00:23:00,
2013-01-30 19:28:00,69.3,61.0,29.48,SSE,159,0.0,16.0,75,0.00,,---,0.00,VWS V13.01,2013-01-31 00:28:00,
2013-01-30 19:33:00,69.2,61.0,29.48,NE,37,0.0,16.0,75,0.00,,---,0.00,VWS V13.01,2013-01-31 00:33:00,
2013-01-30 19:38:00,69.1,60.8,29.48,NNW,338,5.0,16.0,75,0.00,,---,0.00,VWS V13.01,2013-01-31 00:38:00,
2013-01-30 19:43:00,69.2,61.0,29.48,WNW,283,1.0,16.0,75,0.00,,---,0.00,VWS V13.01,2013-01-31 00:43:00,
2013-01-30 19:48:00,69.1,60.8,29.48,SSE,153,4.0,16.0,75,0.00,,---,0.00,VWS V13.01,2013-01-31 00:48:00,
2013-01-30 19:53:00,69.2,61.0,29.48,SSE,166,2.0,16.0,75,0.00,,---,0.00,VWS V13.01,2013-01-31 00:53:00,
2013-01-30 19:58:00,69.2,61.0,29.46,NNE,23,5.0,16.0,75,0.00,,---,0.00,VWS V13.01,2013-01-31 00:58:00,
2013-01-30 20:03:00,69.2,61.0,29.46,SSW,209,1.0,16.0,75,0.00,,---,0.00,VWS V13.01,2013-01-31 01:03:00,
2013-01-30 20:08:00,69.3,61.0,29.46,South,174,0.0,16.0,75,0.00,,---,0.00,VWS V13.01,2013-01-31 01:08:00,
2013-01-30 20:13:00,69.3,60.7,29.46,WSW,256,2.0,16.0,74,0.00,,---,0.00,VWS V13.01,2013-01-31 01:13:00,
2013-01-30 20:18:00,69.3,61.0,29.46,North,6,3.0,16.0,75,0.00,,---,0.00,VWS V13.01,2013-01-31 01:18:00,
2013-01-30 20:23:00,69.3,61.0,29.46,South,180,2.0,16.0,75,0.00,,---,0.00,VWS V13.01,2013-01-31 01:23:00,
2013-01-30 20:28:00,69.3,60.7,29.44,NNW,340,2.0,16.0,74,0.00,,---,0.00,VWS V13.01,2013-01-31 01:28:00,
2013-01-30 20:33:00,69.4,61.1,29.44,South,170,5.0,16.0,75,0.00,,---,0.00,VWS V13.01,2013-01-31 01:33:00,
2013-01-30 20:38:00,69.5,60.9,29.44,SSE,160,4.0,16.0,74,0.00,,---,0.00,VWS V13.01,2013-01-31 01:38:00,
2013-01-30 20:43:00,69.5,61.2,29.44,SW,218,0.0,16.0,75,0.00,,---,0.00,VWS V13.01,2013-01-31 01:43:00,
2013-01-30 20:48:00,69.4,61.1,29.44,NNW,338,3.0,16.0,75,0.00,,---,0.00,VWS V13.01,2013-01-31 01:48:00,
2013-01-30 20:53:00,69.5,61.2,29.44,NW,324,6.0,16.0,75,0.00,,---,0.00,VWS V13.01,2013-01-31 01:53:00,
2013-01-30 20:58:00,69.5,61.2,29.42,North,356,3.0,16.0,75,0.00,,---,0.00,VWS V13.01,2013-01-31 01:58:00,
2013-01-30 21:03:00,69.5,61.2,29.42,NW,315,1.0,16.0,75,0.00,,---,0.00,VWS V13.01,2013-01-31 02:03:00,
2013-01-30 21:08:00,69.6,61.3,29.42,South,169,3.0,16.0,75,0.00,,---,0.00,VWS V13.01,2013-01-31 02:08:00,
2013-01-30 21:13:00,69.7,61.4,29.41,SSE,167,6.0,16.0,75,0.00,,---,0.00,VWS V13.01,2013-01-31 02:13:00,
2013-01-30 21:18:00,69.7,61.4,29.41,NNW,333,1.0,16.0,75,0.00,,---,0.00,VWS V13.01,2013-01-31 02:18:00,
2013-01-30 21:23:00,69.7,62.2,29.41,SSE,167,5.0,16.0,77,0.00,,---,0.00,VWS V13.01,2013-01-31 02:23:00,
2013-01-30 21:28:00,69.2,62.4,29.40,NW,326,4.0,16.0,79,0.00,,---,0.00,VWS V13.01,2013-01-31 02:28:00,
2013-01-30 21:33:00,68.5,62.5,29.40,North,359,5.0,18.0,81,0.00,,---,0.01,VWS V13.01,2013-01-31 02:33:00,
2013-01-30 21:38:00,68.0,62.3,29.40,SSE,152,4.0,18.0,82,0.00,,---,0.02,VWS V13.01,2013-01-31 02:38:00,
2013-01-30 21:43:00,67.6,62.6,29.40,West,269,1.0,18.0,84,0.00,,---,0.03,VWS V13.01,2013-01-31 02:43:00,
2013-01-30 21:48:00,67.3,62.6,29.40,NW,314,4.0,18.0,85,0.00,,---,0.04,VWS V13.01,2013-01-31 02:48:00,
2013-01-30 21:53:00,67.1,62.5,29.40,SSE,163,2.0,18.0,85,0.00,,---,0.05,VWS V13.01,2013-01-31 02:53:00,
2013-01-30 21:58:00,66.9,62.2,29.40,SE,135,1.0,18.0,85,0.00,,---,0.06,VWS V13.01,2013-01-31 02:58:00,
2013-01-30 22:03:00,66.8,62.5,29.38,NNW,333,0.0,18.0,86,0.00,,---,0.06,VWS V13.01,2013-01-31 03:03:00,
2013-01-30 22:08:00,66.7,62.4,29.38,South,175,1.0,18.0,86,0.00,,---,0.06,VWS V13.01,2013-01-31 03:08:00,
2013-01-30 22:13:00,66.6,62.6,29.38,NNW,348,1.0,18.0,87,0.00,,---,0.07,VWS V13.01,2013-01-31 03:13:00,
2013-01-30 22:18:00,66.7,62.4,29.38,NNW,333,2.0,18.0,86,0.00,,---,0.08,VWS V13.01,2013-01-31 03:18:00,
2013-01-30 22:23:00,66.7,62.7,29.38,South,169,5.0,18.0,87,0.00,,---,0.08,VWS V13.01,2013-01-31 03:23:00,
2013-01-30 22:28:00,66.7,62.7,29.38,North,6,2.0,18.0,87,0.00,,---,0.08,VWS V13.01,2013-01-31 03:28:00,
2013-01-30 22:33:00,66.6,62.6,29.37,WNW,302,2.0,18.0,87,0.00,,---,0.08,VWS V13.01,2013-01-31 03:33:00,
2013-01-30 22:38:00,66.4,62.7,29.37,NNE,13,5.0,18.0,88,0.00,,---,0.09,VWS V13.01,2013-01-31 03:38:00,
2013-01-30 22:43:00,66.3,62.6,29.37,NNW,327,1.0,18.0,88,0.00,,---,0.09,VWS V13.01,2013-01-31 03:43:00,
2013-01-30 22:48:00,66.2,62.5,29.35,NNW,333,2.0,18.0,88,0.00,,---,0.09,VWS V13.01,2013-01-31 03:48:00,
2013-01-30 22:53:00,66.4,62.7,29.35,NNE,20,6.0,18.0,88,0.00,,---,0.10,VWS V13.01,2013-01-31 03:53:00,
2013-01-30 22:58:00,66.2,62.9,29.35,SSW,203,0.0,18.0,89,0.00,,---,0.15,VWS V13.01,2013-01-31 03:58:00,
2013-01-30 23:03:00,65.8,63.1,29.37,SSW,200,2.0,18.0,91,0.00,,---,0.19,VWS V13.01,2013-01-31 04:03:00,
2013-01-30 23:08:00,65.2,62.8,29.37,NNW,342,2.0,18.0,92,0.00,,---,0.19,VWS V13.01,2013-01-31 04:08:00,
2013-01-30 23:13:00,64.9,62.8,29.37,SSE,148,1.0,18.0,93,0.00,,---,0.19,VWS V13.01,2013-01-31 04:13:00,
2013-01-30 23:18:00,64.7,62.6,29.40,SSE,167,1.0,18.0,93,0.00,,---,0.19,VWS V13.01,2013-01-31 04:18:00,
2013-01-30 23:23:00,64.5,62.1,29.40,West,277,2.0,18.0,92,0.00,,---,0.19,VWS V13.01,2013-01-31 04:23:00,
2013-01-30 23:28:00,64.3,61.9,29.40,NW,316,1.0,18.0,92,0.00,,---,0.19,VWS V13.01,2013-01-31 04:28:00,
2013-01-30 23:33:00,64.1,61.4,29.39,South,190,5.0,18.0,91,0.00,,---,0.19,VWS V13.01,2013-01-31 04:33:00,
2013-01-30 23:38:00,63.7,60.4,29.39,NNE,13,0.0,18.0,89,0.00,,---,0.19,VWS V13.01,2013-01-31 04:38:00,
2013-01-30 23:43:00,63.1,58.2,29.39,West,277,2.0,18.0,84,0.00,,---,0.20,VWS V13.01,2013-01-31 04:43:00,
2013-01-30 23:48:00,62.4,57.2,29.40,SSW,211,0.0,18.0,83,0.00,,---,0.20,VWS V13.01,2013-01-31 04:48:00,
2013-01-30 23:53:00,61.7,57.2,29.40,NNW,332,3.0,18.0,85,0.00,,---,0.20,VWS V13.01,2013-01-31 04:53:00,
2013-01-30 23:58:00,61.0,56.8,29.40,North,359,1.0,18.0,86,0.00,,---,0.21,VWS V13.01,2013-01-31 04:58:00,